Weather History for KGFL - February, 2014

Change the Weather History Date:

Saturday, February 22, 2014

  Actual Average Record
Temperature  
Mean Temperature 35 °F 23 °F  
Max Temperature 50 °F 35 °F 63 °F (1981)
Min Temperature 20 °F 12 °F -12 °F (2011)
Degree Days  
Heating Degree Days 30 42  
Month to date heating degree days 1029 979  
Since 1 July heating degree days 5478 5375  
Cooling Degree Days 0 0  
Month to date cooling degree days 0 0  
Year to date cooling degree days 0 0  
Moisture  
Dew Point 23 °F    
Average Humidity 61    
Maximum Humidity 100    
Minimum Humidity 22    
Precipitation  
Precipitation 0.00 in 0.07 in 1.89 in (1974)
Month to date precipitation 2.60 1.60  
Year to date precipitation 4.53 4.46  
Sea Level Pressure  
Sea Level Pressure 29.86 in    
Wind  
Wind Speed 10 mph (SW)    
Max Wind Speed 26 mph    
Max Gust Speed 42 mph    
Visibility 6 miles    
Events Fog    
T = Trace of Precipitation, MM = Missing Value Source: NWS Daily Summary

Daily Weather History Graph

Daily Weather History Graph

Search for Another Location

Airport or City:

Trip Planner

Search our weather history database for the weather conditions in past years. The results will help you decide how hot, cold, wet, or windy it might be!

Date:

Astronomy

Feb. 22, 2014 Rise Set
Actual Time 6:42 AM EST 5:34 PM EST
Civil Twilight 6:13 AM EST 6:03 PM EST
Nautical Twilight 5:39 AM EST 6:36 PM EST
Astronomical Twilight 5:07 AM EST 7:09 PM EST
Moon 12:38 AM EST (2/22) 10:38 AM EST (2/22)
Length of Visible Light 11h 50m
Length of Day
10h 52m
Waning Gibbous, 50% of the Moon is Illuminated
Feb 22
Waning Gibbous
Feb 22
Last Quarter
Mar 1
New
Mar 8
First Quarter
Mar 16
Full

Hourly Weather History & Observations

Time (EST) Temp. Windchill Dew Point Humidity Pressure Visibility Wind Dir Wind Speed Gust Speed Precip Events Conditions
12:17 AM 27.0 °F 21.6 °F 25.0 °F 92% 29.80 in 0.5 mi South 4.6 mph - N/A Fog Light Freezing Fog
12:53 AM 30.9 °F 24.3 °F 30.0 °F 96% 29.85 in 1.0 mi South 6.9 mph - N/A   Mist
1:03 AM 30.9 °F 25.2 °F 30.0 °F 96% 29.83 in 3.0 mi SW 5.8 mph - N/A   Mostly Cloudy
1:15 AM 30.0 °F 23.2 °F 28.9 °F 96% 29.83 in 8.0 mi South 6.9 mph - N/A   Scattered Clouds
1:34 AM 30.0 °F 22.4 °F 28.9 °F 96% 29.83 in 1.5 mi SSE 8.1 mph - N/A   Partly Cloudy
1:36 AM 30.0 °F 22.4 °F 28.0 °F 92% 29.82 in 0.8 mi SSE 8.1 mph - N/A   Mist
1:53 AM 28.9 °F 23.9 °F 28.9 °F 100% 29.86 in 1.0 mi South 4.6 mph - N/A   Mist
2:03 AM 28.0 °F 20.8 °F 27.0 °F 96% 29.84 in 0.8 mi South 6.9 mph - N/A   Mist
2:07 AM 28.0 °F 21.7 °F 27.0 °F 96% 29.84 in 1.5 mi SSW 5.8 mph - N/A   Partly Cloudy
2:10 AM 28.0 °F 22.8 °F 27.0 °F 96% 29.84 in 3.0 mi SSW 4.6 mph - N/A   Partly Cloudy
2:30 AM 26.1 °F - 26.1 °F 100% 29.84 in 1.5 mi Calm Calm - N/A   Clear
2:32 AM 26.1 °F - 25.0 °F 96% 29.83 in 0.8 mi Calm Calm - N/A   Mist
2:43 AM 28.0 °F 22.8 °F 26.1 °F 92% 29.83 in 1.5 mi West 4.6 mph - N/A   Partly Cloudy
2:46 AM 28.9 °F 23.9 °F 27.0 °F 92% 29.83 in 3.0 mi SW 4.6 mph - N/A   Partly Cloudy
2:53 AM 26.1 °F 21.9 °F 25.0 °F 96% 29.86 in 3.0 mi SW 3.5 mph - N/A   Partly Cloudy
2:58 AM 25.0 °F 20.7 °F 24.1 °F 96% 29.83 in 1.8 mi SW 3.5 mph - N/A   Partly Cloudy
3:20 AM 23.0 °F - 19.9 °F 88% 29.84 in 0.8 mi Calm Calm - N/A   Mist
3:38 AM 21.0 °F 16.2 °F 19.0 °F 92% 29.84 in 0.2 mi WNW 3.5 mph - N/A Fog Light Freezing Fog
3:53 AM 21.9 °F - 19.9 °F 92% 29.87 in 0.2 mi Calm Calm - N/A Fog Light Freezing Fog
4:18 AM 21.9 °F 15.7 °F 21.0 °F 96% 29.85 in 1.0 mi South 4.6 mph - N/A   Mist
4:20 AM 21.9 °F 14.5 °F 21.0 °F 96% 29.84 in 2.0 mi South 5.8 mph - N/A   Partly Cloudy
4:28 AM 23.0 °F 15.8 °F 21.9 °F 96% 29.84 in 6.0 mi South 5.8 mph - N/A   Partly Cloudy
4:53 AM 28.0 °F 21.7 °F 26.1 °F 92% 29.88 in 10.0 mi South 5.8 mph - N/A   Clear
5:53 AM 30.0 °F 21.7 °F 26.1 °F 85% 29.90 in 10.0 mi South 9.2 mph - N/A   Clear
6:53 AM 28.0 °F 20.0 °F 24.1 °F 85% 29.91 in 10.0 mi South 8.1 mph - N/A   Clear
7:53 AM 30.9 °F 23.5 °F 25.0 °F 79% 29.91 in 10.0 mi SSW 8.1 mph - N/A   Clear
8:53 AM 34.0 °F 31.0 °F 26.1 °F 73% 29.90 in 10.0 mi South 3.5 mph - N/A   Clear
9:53 AM 39.9 °F 32.9 °F 24.1 °F 53% 29.88 in 10.0 mi SSW 11.5 mph - N/A   Partly Cloudy
10:53 AM 42.1 °F 35.7 °F 24.1 °F 49% 29.86 in 10.0 mi SSW 11.5 mph - N/A   Overcast
11:53 AM 44.1 °F 38.1 °F 23.0 °F 43% 29.84 in 10.0 mi SSW 11.5 mph 24.2 mph N/A   Scattered Clouds
12:53 PM 46.9 °F - 23.0 °F 39% 29.81 in 10.0 mi WSW 15.0 mph 31.1 mph N/A   Mostly Cloudy
1:53 PM 48.0 °F - 21.0 °F 34% 29.80 in 10.0 mi WSW 17.3 mph 29.9 mph N/A   Mostly Cloudy
2:53 PM 48.9 °F - 19.9 °F 32% 29.81 in 10.0 mi SW 21.9 mph 28.8 mph N/A   Scattered Clouds
3:53 PM 48.9 °F - 19.9 °F 32% 29.83 in 10.0 mi WSW 12.7 mph 25.3 mph N/A   Scattered Clouds
4:53 PM 48.0 °F - 19.0 °F 32% 29.84 in 10.0 mi SW 15.0 mph 21.9 mph N/A   Scattered Clouds
5:53 PM 46.0 °F 40.6 °F 14.0 °F 28% 29.87 in 10.0 mi SW 11.5 mph 19.6 mph N/A   Clear
6:53 PM 46.0 °F 42.5 °F 10.9 °F 24% 29.89 in 10.0 mi WSW 6.9 mph 19.6 mph N/A   Partly Cloudy
7:53 PM 44.1 °F 39.5 °F 8.1 °F 23% 29.90 in 10.0 mi WSW 8.1 mph 18.4 mph N/A   Mostly Cloudy
8:53 PM 43.0 °F 37.7 °F 9.0 °F 25% 29.91 in 10.0 mi WSW 9.2 mph - N/A   Clear
9:53 PM 42.1 °F 35.7 °F 14.0 °F 32% 29.92 in 10.0 mi WSW 11.5 mph 18.4 mph N/A   Clear
10:53 PM 42.1 °F 34.2 °F 16.0 °F 35% 29.94 in 10.0 mi WSW 16.1 mph 24.2 mph N/A   Clear
11:53 PM 41.0 °F 34.3 °F 21.9 °F 47% 29.94 in 10.0 mi West 11.5 mph 24.2 mph N/A   Overcast